Overview Statistics Trail Chart Weather Telemetry Raw packets
 

This is the latest recevied weather packets stored in our database for station/object JE7UPL-13. If no packets are shown the sender has not sent any weather packets the latest 10 day(s).

<< 33 34 35 36 37 38 39 >>
Time Temp. Humidity Pressure Rain* Wind** Luminosity Snow
1787797806 26.67° C 73% 1002.3 hPa 0 mm - - -
1787796906 26.67° C 73% 1002.7 hPa 0 mm - - -
1787796012 26.67° C 72% 1002.6 hPa 0 mm - - -
1787795106 26.67° C 73% 1002.9 hPa 0 mm - - -
1787794209 26.67° C 71% 1002.9 hPa 0 mm - - -
1787793306 27.22° C 70% 1003 hPa 0 mm - - -
1787792410 26.67° C 73% 1002.8 hPa 0 mm - - -
1787791505 25.56° C 75% 1003 hPa 0 mm - - -
1787790606 25.56° C 75% 1003.1 hPa 0 mm - - -
1787789706 25.56° C 73% 1003.4 hPa 0 mm - - -
1787788808 25.56° C 74% 1003.9 hPa 0 mm - - -
1787787906 24.44° C 77% 1004.1 hPa 0 mm - - -
1787787007 24.44° C 78% 1004.1 hPa 0 mm - - -
1787786105 24.44° C 79% 1004 hPa 0 mm - - -
1787785207 23.89° C 82% 1004 hPa 0 mm - - -
1787784306 23.33° C 83% 1004 hPa 0 mm - - -
1787783406 23.33° C 83% 1003.9 hPa 0 mm - - -
1787782506 23.33° C 84% 1003.7 hPa 0 mm - - -
1787781607 23.33° C 88% 1003.8 hPa 0 mm - - -
1787780706 22.22° C 89% 1003.7 hPa 0 mm - - -
1787779809 22.22° C 90% 1003.6 hPa 0 mm - - -
1787778906 21.67° C 91% 1003.9 hPa 0 mm - - -
1787778006 21.67° C 91% 1003.9 hPa 0 mm - - -
1787777106 21.11° C 91% 1004.3 hPa 0 mm - - -
1787776206 21.11° C 91% 1004.4 hPa 0 mm - - -

* Rain latest hour (hover to see other rain measurements)
** Current wind speed in m/s (hover to see current wind gust speed)